Location: Harwich
(41.6860°N, 70.0760°W)
Time: 18:10:01
(UTC-04:00)

Cosmos 2228 - Visible Passes

Search period start: 06 July 2015 00:00
Search period end: 16 July 2015 00:00
Orbit: 593 x 621 km, 82.5° (Epoch: 05 July)

Date Brightness Start Highest point End Pass type
(mag) Time Alt. Az. Time Alt. Az. Time Alt. Az.
06 Jul 3.5 03:29:58 14° S 03:33:32 57° E 03:37:48 10° NNE visible
07 Jul 3.0 03:43:51 17° S 03:47:08 82° W 03:51:30 10° N visible
08 Jul 5.6 02:21:19 10° ESE 02:23:33 14° E 02:25:59 10° NE visible
08 Jul 3.4 03:57:43 17° SSW 04:00:48 46° WNW 04:05:01 10° N visible
09 Jul 4.9 02:34:38 15° SE 02:37:00 24° E 02:40:32 10° NE visible
09 Jul 4.2 04:11:34 14° SW 04:14:33 27° WNW 04:18:17 10° NNW visible
10 Jul 4.0 02:48:27 24° SE 02:50:30 41° E 02:54:37 10° NNE visible
10 Jul 4.8 04:25:30 10° WSW 04:28:25 17° WNW 04:31:13 10° NNW visible
11 Jul 3.1 03:02:15 34° S 03:04:03 72° E 03:08:25 10° NNE visible
11 Jul 5.3 04:41:44 10° WNW 04:42:22 10° WNW 04:42:43 10° WNW visible
12 Jul 5.7 01:39:55 10° E 01:40:34 10° E 01:41:30 10° ENE visible
12 Jul 3.1 03:16:02 36° SSW 03:17:40 65° W 03:22:01 10° N visible
13 Jul 5.1 01:52:52 16° ESE 01:54:00 18° E 01:57:01 10° NE visible
13 Jul 3.8 03:29:47 28° WSW 03:31:22 37° WNW 03:35:26 10° N visible
14 Jul 4.4 02:06:36 27° ESE 02:07:27 30° E 02:11:18 10° NNE visible
14 Jul 4.5 03:43:31 19° WSW 03:45:10 23° WNW 03:48:35 10° NNW visible
15 Jul 3.5 02:20:20 47° SE 02:20:58 52° E 02:25:15 10° NNE visible
15 Jul 5.1 03:57:15 12° W 03:59:02 14° WNW 04:01:15 10° NW visible
